Regional Weather Roundup
Issued by NWS

Home | Current Version | Previous Version | Graphics & Text | Print | Product List | Glossary On
Versions: 1 2 3 4 5 6 7 8 9 10 11 12 13 14 15 16 17 18 19 20 21 22 23 24 25 26 27 28 29 30 31 32 33 34 35 36 37 38 39 40 41 42 43 44 45 46 47 48 49 50
492
ASUS43 KFSD 252110
RWRSD

WEATHER ROUNDUP FOR SOUTH DAKOTA
NATIONAL WEATHER SERVICE SIOUX FALLS SD
300 PM CST SAT FEB 25 2017

NOTE: "FAIR" INDICATES FEW OR NO CLOUDS BELOW 12,000 FEET WITH NO
SIGNIFICANT WEATHER AND/OR OBSTRUCTIONS TO VISIBILITY.


SDZ001>005-009-010-012>017-252200-
NORTHWEST AND NORTH CENTRAL SOUTH DAKOTA

CITY           SKY/WX    TMP DP  RH WIND       PRES   REMARKS
BUFFALO          N/A     32  15  49 W13       29.68F WCI  22
FAITH            N/A     36  16  44 NW17G24   29.76F
MOBRIDGE       CLOUDY    36  23  59 NW20      29.75F
$$

SDZ012>016-024>037-041>051-057-063-072>074-252200-
SOUTHWEST AND SOUTH CENTRAL SOUTH DAKOTA

CITY           SKY/WX    TMP DP  RH WIND       PRES   REMARKS
RAPID CTY ARPT LGT SNOW  29  21  72 S3        29.79F
PIERRE         CLOUDY    37  20  50 NW10      29.80F
CUSTER         LGT SNOW  20  13  74 W12       29.69F WCI   8
ELLSWORTH AFB  LGT SNOW  28  27  93 SW13      29.78  FOG     WCI  18
PHILIP         CLOUDY    39  13  34 W17       29.80F
PINE RIDGE     MOSUNNY   29  20  69 W16G24    29.84F WCI  17
SPEARFISH      FAIR      30  16  55 W14       29.74F WCI  20
WINNER         FAIR      34  22  61 W10       29.84F WCI  26
$$

SDZ004>011-016>023-039-040-252200-
NORTHEAST SOUTH DAKOTA

CITY           SKY/WX    TMP DP  RH WIND       PRES   REMARKS
ABERDEEN       PTSUNNY   38  15  39 SW14G21   29.79F
WATERTOWN      SUNNY     34  17  50 SW15      29.81F WCI  24
BROOKINGS      CLOUDY    30  17  58 S16       29.85F WCI  19
SISSETON         N/A     37  20  50 W16       29.79F
$$

SDZ017-020-022-023-036>040-048>070-252200-
SOUTHEAST SOUTH DAKOTA

CITY           SKY/WX    TMP DP  RH WIND       PRES   REMARKS
SIOUX FALLS    PTSUNNY   27  17  66 S17       29.91F WCI  14
HURON          PTSUNNY   38  18  44 S7        29.82F
CHAMBERLAIN    CLOUDY    37  23  56 SW13      29.83F
MITCHELL       SUNNY     33  21  61 S18       29.87F WCI  22
YANKTON        MOSUNNY   28  16  59 S14       29.92F WCI  17
$$

ABBREVIATIONS USED IN REMARKS
   TC - TEMPERATURE IN CELSIUS
  WCI - WIND CHILL INDEX
   HX - HEAT INDEX
  VSB - VISIBILITY





USA.gov is the U.S. government's official web portal to all federal, state and local government web resources and services.